User: anonymous   Login
Location: Hancock Field Station
(44.9202°N, 120.4259°W)
Time: 00:55:37
(UTC-07:00)
Language:

Nadezhda 4 Rocket - Orbit

View from above orbital plane
View from above orbital plane
View from above satellite
View from above satellite

Ground track
Ground track

The orbit data is extracted from the following two-line orbital elements,

1 23180U 94041B   15147.48740975 -.00000010  00000-0 -25559-4 0  9997
2 23180 082.9442 130.3888 0029111 169.3242 316.7753 13.77895919 49382
Epoch (UTC): 27 May 2015 11:41:52
Eccentricity: 0.0029111
inclination: 82.9442°
perigee height: 950 km
apogee height: 993 km
right ascension of ascending node: 130.3888°
argument of perigee: 169.3242°
revolutions per day: 13.77895919
mean anomaly at epoch: 316.7753°
orbit number at epoch: 4938

The dashed part of the orbit path shows where the satellite is in the earth's shadow,  

DLR